SL-16 R/B (20625 NORAD) Tracking and Keplerian Element Data

This shows tracking and keplerian element data for the satellite.

Feedback or suggestion? Click here.




ElementValue
Catalog20625
NameSL-16 R/B
Epoch Orbit63428
Epoch Day15.91619924
Epoch Year2022
RAAN236.106
Inclination70.9981
Eccentricity0.0012043
Argument of Perigee83.8863
Mean Anonmoly276.3631
Mean Motion14.14682953
Decay Rate1.68E-06
L11 20625U 90046B 22015.91619924 .00000168 00000+0 11211-3 0 9998
L22 20625 70.9981 236.1060 0012043 83.8863 276.3631 14.14682953634289

Live tracking and technical data element details for SL-16 R/B (NORAD 20625). SL-16 R/B can be tracked NOW for your location showing map with azimuth and elevation plus other details from your city location.

Track the satellite on the map from your city or location and see movement details for azimuth, elevation, latitude, longitude, range, height, and movement on the map or in text.







IsCatalogInMostPopularTable: catalog: 20625, numindb: 359
Update: records affected: 1



GetName: 20625 SL-16 R/B

Hit Count: updated at: Mon, 17 Jan 2022 01:41:59 GMT